CZ-6A DEB

Satellite information

Favourite Embed

Satellite Type and Status

DEBRISIN ORBIT

Key statistics

Satellite CZ-6A DEB at a glance.

Uptime

969

Days in orbit

Revolutions

≈ 14.8

Per day

Orbit

SSO

Sun Synchronous Orbit

Inclination

98.6

Latest

Satellite identification and parameters

Extended collection of information and parameters for CZ-6A DEB.

Object identification

Identified? True

Debris? True

Object name: CZ-6A DEB

International designator: 2022-151ZP

Object number (NORAD): 55867

Object ID (CCSDS): 55867

Country: PEOPLES REPUBLIC OF CHINA (PRC)

Current information (Y/N): Y

RCS size: SMALL

Orbital parameters

Period: 97.387 minutes

Inclination: 98.6398 deg

SMA: 7011.749 km

Apoapsis: 669.98 km

Periapsis: 597.249 km

RAAN: 233.049 deg

Eccentricy: 0.0051864

Argument of periapsis: 270.9754 deg

Mean anomaly: 88.5513 deg

Mean motion: 14.7864247 rev/day

Mean motion (dot): 0.00021282 rev/day2

B* drag term: 0.0028408 1/REarth

Two-line elements (TLE)

Creation date: July 5, 2025, 5:45 p.m.

Reference frame: TEME

Reference center: EARTH

Epoch: July 5, 2025, 2:25 p.m. UTC

TLE line 0: 0 CZ-6A DEB

TLE line 1: 1 55867U 22151ZP 25186.60087436 .00021282 00000-0 28408-2 0 9997

TLE line 2: 2 55867 98.6398 233.0490 0051864 270.9754 88.5513 14.78642470127648

Live tracking on map

Real-time ground track for satellite CZ-6A DEB.

In-orbit conjunctions

A list of the most updated potential collisions computed for object CZ-6A DEB.

Target Orbit TCA Probability of collision Miss distance Type
KAGAYAKI SSO 2025-05-29 10:02:45 0.0001805246 333.0 (m) PAYLOAD
COSMOS 2251 DEB LEO 2024-11-17 09:25:03 0.0001106466 162.0 (m) DEBRIS
COSMOS 1900 DEB LEO 2024-11-15 19:57:38 0.0001062516 339.0 (m) DEBRIS
SAC C SSO 2024-08-29 03:00:14 0.00017715 206.0 (m) PAYLOAD
ATLAS 2AS CENTAUR R/B LEO 2024-06-28 00:17:47 0.0001863675 792.0 (m) ROCKET BODY

Associated space launch

Chinese satellite reported for atmospheric/ocean/environmental/spatial parameter research purposes, details TBD.

CZ-6A DEB was lifted into orbit during the mission ‘Long March 6A | Yunhai 3’, on board a Long March 6A space rocket.

The launch took place on Nov. 11, 2022, 10:52 p.m. from Launch Complex 9A.

For more information about the launch, click the button.

Launch to space Long March 6A | Yunhai 3
Long March 6A | Yunhai 3

Agency: N/A

Status: Launch Successful

Launch date: Nov. 11, 2022, 10:52 p.m. UTC

Rocket: Long March 6A

Launch pad: Launch Complex 9A

Location: Taiyuan Satellite Launch Center, People's Republic of China

...

Latest news about this satellite

There are no fresh news available about this satellite. Check back as we update our databases every day.


Newsletter sign-up

Weekly statistics, charts and insights to help you stay on top of the space industry.